This demonstration page uses our WeatherBlox Daily Observations layout. Learn more.

Left ArrowRight Arrow

39.08367, -84.50855

Hourly Observations for December 30, 2017

Temp ( °F °C ) Dew Point ( °F °C ) Humidity (%) Winds ( mph kmh ) Pressure ( in mb ) Visibility ( mi km ) Precip ( " mm )
12:53 am 00:53 Cloudy with Mist and Fog 23 -5 20 -6.7 88 88 E 3 6 30.19 1023 6 10 N/A
1:06 am 01:06 Cloudy with Mist and Fog 23 -5 20 -6.7 88 88 N N/A 30.21 1023 5 8 N/A
1:53 am 01:53 Cloudy with Mist and Fog 23 -5 20 -6.7 88 88 N N/A 30.19 1022 4 6 N/A
2:53 am 02:53 Cloudy with Mist and Fog 23 -5 21 -6.1 92 92 N N/A 30.19 1022 6 10 N/A
3:53 am 03:53 Cloudy with Mist and Fog 24 -4.4 20 -6.7 84 84 N N/A 30.18 1022 6 10 N/A
4:21 am 04:21 Cloudy with Mist and Fog 24 -4.4 21 -6.1 88 88 WSW 5 7 30.18 1022 6 10 N/A
4:53 am 04:53 Cloudy with Mist and Fog 24 -4.4 21 -6.1 88 88 SW 3 6 30.17 1022 6 10 N/A
5:53 am 05:53 Cloudy 23 -5 20 -6.7 88 88 NNW 7 11 30.19 1022 7 11 N/A
6:53 am 06:53 Cloudy 22 -5.6 18 -7.8 85 85 NNW 7 11 30.21 1023 7 11 N/A
7:16 am 07:16 Cloudy 21 -6.1 17 -8.3 85 85 VRB 7 11 30.21 1023 7 11 N/A
7:53 am 07:53 Cloudy 21 -6.1 16 -8.9 81 81 NW 3 6 30.19 1023 7 11 N/A
8:53 am 08:53 Cloudy with Haze 20 -6.7 15 -9.4 81 81 NW 8 13 30.22 1023 6 10 N/A
9:53 am 09:53 Cloudy with Haze 20 -6.7 13 -10.6 74 74 W 10 17 30.24 1024 5 8 N/A
10:53 am 10:53 Cloudy with Haze 20 -6.7 13 -10.6 74 74 NW 10 17 30.27 1025 6 10 N/A
11:53 am 11:53 Mostly Cloudy 21 -6.1 13 -10.6 71 71 WNW 9 15 30.24 1024 9 14 N/A
12:53 pm 12:53 Cloudy 21 -6.1 12 -11.1 68 68 WNW 12 19 30.24 1024 10 16 N/A
1:53 pm 13:53 Mostly Cloudy 21 -6.1 11 -11.7 65 65 WNW 8 13 30.24 1024 10 16 N/A
2:10 pm 14:10 Cloudy 21 -6.1 10 -12.2 62 62 NW 12 19 30.27 1025 10 16 N/A
2:53 pm 14:53 Mostly Cloudy 20 -6.7 8 -13.3 60 60 WNW 14 22 30.26 1025 10 16 N/A
3:53 pm 15:53 Mostly Cloudy 18 -7.8 9 -12.8 68 68 NW 10 17 30.29 1026 10 16 N/A
4:53 pm 16:53 Mostly Cloudy 16 -8.9 5 -15 62 62 NNW 13 20 30.33 1027 10 16 N/A
5:53 pm 17:53 Partly Cloudy 13 -10.6 1 -17.2 59 59 NW 10 17 30.36 1028 10 16 N/A
6:53 pm 18:53 Clear 12 -11.1 2 -16.7 64 64 NW 13 20 30.39 1029 10 16 N/A
7:53 pm 19:53 Clear 11 -11.7 1 -17.2 64 64 NW 8 13 30.41 1030 10 16 N/A
8:53 pm 20:53 Clear 9 -12.8 -1 -18.3 64 64 NW 6 9 30.44 1031 10 16 N/A
9:53 pm 21:53 Clear 8 -13.3 -2 -18.9 63 63 N 7 11 30.46 1031 10 16 N/A
10:53 pm 22:53 Clear 6 -14.4 -3 -19.4 66 66 NNE 3 6 30.46 1032 10 16 N/A
11:53 pm 23:53 Clear 7 -13.9 -3 -19.4 63 63 NNE 3 6 30.47 1032 10 16 N/A

Powered by AerisWeather